• In Kazakhstan
  • List of Countries
  • For 7 days
  • Water Temperature
  • Satellite Maps
  • Weather Map
  • News
  • Weather Widgets
  • user-avatar
    Login

    Hourly Weather Malanje

    Today, 23 July, Tuesday

    Time Temperature Precipitation Wind Pressure Humidity
    00:00 +16°C° 0 mm 1 mps 665 mmHg 70%
    01:00 +15°C° 0 mm 1 mps 665 mmHg 83%
    02:00 +14°C° 0 mm 1 mps 665 mmHg 86%
    03:00 +14°C° 0 mm 1 mps 665 mmHg 89%
    04:00 +14°C° 0 mm 1 mps 665 mmHg 92%
    05:00 +13°C° 0 mm 0 mps 665 mmHg 89%
    06:00 +13°C° 0 mm 0 mps 666 mmHg 86%
    07:00 +15°C° 0 mm 1 mps 666 mmHg 89%
    08:00 +21°C° 0 mm 1 mps 667 mmHg 68%
    09:00 +25°C° 0 mm 1 mps 669 mmHg 48%
    10:00 +29°C° 0 mm 1 mps 670 mmHg 27%
    11:00 +31°C° 0 mm 1 mps 669 mmHg 23%
    12:00 +33°C° 0 mm 1 mps 669 mmHg 19%
    13:00 +35°C° 0 mm 1 mps 669 mmHg 15%
    14:00 +34°C° 0 mm 1 mps 668 mmHg 15%
    15:00 +34°C° 0 mm 1 mps 667 mmHg 14%
    16:00 +34°C° 0 mm 2 mps 667 mmHg 14%
    17:00 +30°C° 0 mm 1 mps 666 mmHg 17%
    18:00 +26°C° 0 mm 1 mps 666 mmHg 21%
    19:00 +23°C° 0 mm 1 mps 665 mmHg 24%
    20:00 +22°C° 0 mm 1 mps 665 mmHg 26%
    21:00 +21°C° 0 mm 1 mps 666 mmHg 28%
    22:00 +20°C° 0 mm 1 mps 666 mmHg 30%
    23:00 +19°C° 0 mm 1 mps 665 mmHg 40%

    Tomorrow, 24 July, Wednesday

    Time Temperature Precipitation Wind Pressure Humidity
    00:00 +18°C° 0 mm 1 mps 665 mmHg 50%
    01:00 +16°C° 0 mm 1 mps 664 mmHg 60%
    02:00 +15°C° 0 mm 1 mps 664 mmHg 62%
    03:00 +15°C° 0 mm 1 mps 663 mmHg 65%
    04:00 +14°C° 0 mm 1 mps 663 mmHg 67%
    05:00 +14°C° 0 mm 1 mps 664 mmHg 60%
    06:00 +15°C° 0 mm 1 mps 664 mmHg 53%
    07:00 +15°C° 0 mm 1 mps 665 mmHg 46%
    08:00 +20°C° 0 mm 2 mps 666 mmHg 36%
    09:00 +25°C° 0 mm 2 mps 667 mmHg 26%
    10:00 +29°C° 0 mm 3 mps 668 mmHg 16%
    11:00 +31°C° 0 mm 3 mps 668 mmHg 14%
    12:00 +34°C° 0 mm 2 mps 667 mmHg 12%
    13:00 +35°C° 0 mm 2 mps 667 mmHg 10%
    14:00 +35°C° 0 mm 2 mps 666 mmHg 10%
    15:00 +35°C° 0 mm 2 mps 666 mmHg 10%
    16:00 +35°C° 0 mm 2 mps 665 mmHg 10%
    17:00 +30°C° 0 mm 2 mps 665 mmHg 13%
    18:00 +27°C° 0 mm 1 mps 665 mmHg 16%
    19:00 +23°C° 0 mm 1 mps 664 mmHg 19%
    20:00 +22°C° 0 mm 1 mps 664 mmHg 20%
    21:00 +21°C° 0 mm 1 mps 665 mmHg 22%
    22:00 +18°C° 0 mm 0 mps 665 mmHg 23%
    23:00 +19°C° 0 mm 1 mps 664 mmHg 33%

    Day after tomorrow, 25 July, Thursday

    Time Temperature Precipitation Wind Pressure Humidity
    00:00 +18°C° 0 mm 1 mps 664 mmHg 43%
    01:00 +16°C° 0 mm 1 mps 664 mmHg 52%
    02:00 +15°C° 0 mm 1 mps 664 mmHg 61%
    03:00 +14°C° 0 mm 1 mps 664 mmHg 70%
    04:00 +13°C° 0 mm 0 mps 664 mmHg 79%
    05:00 +13°C° 0 mm 0 mps 665 mmHg 72%
    06:00 +14°C° 0 mm 1 mps 665 mmHg 65%
    07:00 +15°C° 0 mm 1 mps 666 mmHg 58%
    08:00 +20°C° 0 mm 1 mps 667 mmHg 43%
    09:00 +25°C° 0 mm 2 mps 668 mmHg 28%
    10:00 +29°C° 0 mm 2 mps 669 mmHg 12%
    11:00 +31°C° 0 mm 2 mps 668 mmHg 10%
    12:00 +34°C° 0 mm 2 mps 668 mmHg 9%
    13:00 +36°C° 0 mm 2 mps 668 mmHg 7%
    14:00 +36°C° 0 mm 2 mps 667 mmHg 7%
    15:00 +36°C° 0 mm 2 mps 666 mmHg 7%
    16:00 +35°C° 0 mm 2 mps 666 mmHg 7%
    17:00 +31°C° 0 mm 1 mps 665 mmHg 9%
    18:00 +27°C° 0 mm 1 mps 665 mmHg 11%
    19:00 +23°C° 0 mm 1 mps 665 mmHg 14%
    20:00 +22°C° 0 mm 1 mps 665 mmHg 21%
    21:00 +21°C° 0 mm 1 mps 665 mmHg 28%
    22:00 +18°C° 0 mm 2 mps 665 mmHg 35%
    23:00 +18°C° 0 mm 1 mps 665 mmHg 50%

    26 July, Friday

    Time Temperature Precipitation Wind Pressure Humidity
    00:00 +15°C° 0 mm 1 mps 664 mmHg 65%
    01:00 +13°C° 0 mm 0 mps 664 mmHg 80%
    02:00 +14°C° 0 mm 1 mps 664 mmHg 82%
    03:00 +13°C° 0 mm 1 mps 664 mmHg 84%
    04:00 +13°C° 0 mm 1 mps 664 mmHg 86%
    05:00 +13°C° 0 mm 1 mps 664 mmHg 77%
    06:00 +14°C° 0 mm 1 mps 665 mmHg 68%
    07:00 +14°C° 0 mm 1 mps 665 mmHg 59%
    08:00 +19°C° 0 mm 2 mps 666 mmHg 43%
    09:00 +25°C° 0 mm 3 mps 667 mmHg 27%
    10:00 +29°C° 0 mm 3 mps 669 mmHg 11%
    11:00 +31°C° 0 mm 3 mps 668 mmHg 10%
    12:00 +34°C° 0 mm 3 mps 668 mmHg 8%
    13:00 +36°C° 0 mm 3 mps 667 mmHg 7%
    14:00 +36°C° 0 mm 2 mps 666 mmHg 7%
    15:00 +36°C° 0 mm 2 mps 666 mmHg 7%
    16:00 +35°C° 0 mm 2 mps 665 mmHg 6%
    17:00 +31°C° 0 mm 1 mps 665 mmHg 8%
    18:00 +27°C° 0 mm 1 mps 664 mmHg 10%
    19:00 +23°C° 0 mm 1 mps 664 mmHg 12%
    20:00 +22°C° 0 mm 1 mps 664 mmHg 23%
    21:00 +19°C° 0 mm 2 mps 664 mmHg 34%
    22:00 +18°C° 0 mm 2 mps 665 mmHg 45%
    23:00 +16°C° 0 mm 2 mps 664 mmHg 59%

    27 July, Saturday

    Time Temperature Precipitation Wind Pressure Humidity
    00:00 +15°C° 0 mm 1 mps 664 mmHg 72%
    01:00 +14°C° 0 mm 1 mps 663 mmHg 86%
    02:00 +13°C° 0 mm 1 mps 664 mmHg 89%
    03:00 +13°C° 0 mm 1 mps 664 mmHg 91%
    04:00 +12°C° 0 mm 1 mps 664 mmHg 94%
    05:00 +13°C° 0 mm 1 mps 664 mmHg 86%
    06:00 +13°C° 0 mm 1 mps 665 mmHg 78%
    07:00 +14°C° 0 mm 1 mps 665 mmHg 70%
    08:00 +19°C° 0 mm 1 mps 666 mmHg 50%
    09:00 +24°C° 0 mm 2 mps 667 mmHg 30%
    10:00 +29°C° 0 mm 3 mps 668 mmHg 11%
    11:00 +31°C° 0 mm 2 mps 668 mmHg 9%
    12:00 +34°C° 0 mm 2 mps 667 mmHg 8%
    13:00 +36°C° 0 mm 2 mps 667 mmHg 7%
    14:00 +36°C° 0 mm 2 mps 666 mmHg 7%
    15:00 +36°C° 0 mm 2 mps 666 mmHg 7%
    16:00 +35°C° 0 mm 1 mps 665 mmHg 6%
    17:00 +31°C° 0 mm 1 mps 665 mmHg 9%
    18:00 +27°C° 0 mm 1 mps 664 mmHg 11%
    19:00 +23°C° 0 mm 1 mps 664 mmHg 13%
    20:00 +22°C° 0 mm 1 mps 664 mmHg 21%
    21:00 +21°C° 0 mm 1 mps 664 mmHg 29%
    22:00 +18°C° 0 mm 2 mps 664 mmHg 36%
    23:00 +17°C° 0 mm 2 mps 664 mmHg 50%

    28 July, Sunday

    Time Temperature Precipitation Wind Pressure Humidity
    00:00 +16°C° 0 mm 2 mps 664 mmHg 64%
    01:00 +14°C° 0 mm 1 mps 663 mmHg 78%
    02:00 +14°C° 0 mm 2 mps 663 mmHg 84%
    03:00 +13°C° 0 mm 2 mps 663 mmHg 90%
    04:00 +13°C° 0 mm 2 mps 664 mmHg 96%
    05:00 +13°C° 0 mm 2 mps 664 mmHg 94%
    06:00 +13°C° 0 mm 2 mps 665 mmHg 93%
    07:00 +14°C° 0 mm 2 mps 665 mmHg 91%
    08:00 +18°C° 0 mm 2 mps 666 mmHg 70%
    09:00 +23°C° 0 mm 2 mps 667 mmHg 49%
    10:00 +28°C° 0 mm 1 mps 668 mmHg 27%
    11:00 +30°C° 0 mm 1 mps 668 mmHg 22%
    12:00 +33°C° 0 mm 1 mps 668 mmHg 16%
    13:00 +36°C° 0 mm 1 mps 667 mmHg 11%
    14:00 +36°C° 0 mm 1 mps 667 mmHg 10%
    15:00 +35°C° 0 mm 1 mps 666 mmHg 9%
    16:00 +35°C° 0 mm 1 mps 666 mmHg 9%
    17:00 +31°C° 0 mm 1 mps 665 mmHg 12%
    18:00 +28°C° 0 mm 1 mps 665 mmHg 15%
    19:00 +24°C° 0 mm 1 mps 665 mmHg 17%
    20:00 +22°C° 0 mm 1 mps 665 mmHg 31%
    21:00 +20°C° 0 mm 2 mps 665 mmHg 45%
    22:00 +18°C° 0 mm 2 mps 665 mmHg 59%
    23:00 +17°C° 0 mm 2 mps 665 mmHg 67%
    Show more